Location: Unspecified
(54.1780°N, 0.0000°E)
Time: 16:15:34
(UTC+00:00)

Explorer 7 - Pass Details

Date: 21 August 2020
Orbit: 485 x 679 km, 50.3° (Epoch: 23 September)

Event Time Altitude Azimuth Distance (km) Brightness Sun altitude
Rises 21:12:27 0° 275° (W) 2,656 11.1 -14.9°
Reaches altitude 10° 21:15:26 10° 252° (WSW) 1,730 9.7 -15.2°
Maximum altitude 21:17:44 15° 216° (SW) 1,408 8.8 -15.4°
Enters shadow 21:18:51 14° 196° (SSW) 1,478 8.7 -15.5°
